Regional Weather Roundup
Issued by NWS Sterling, VA

Home | Current Version | Previous Version | Text Only | Print | Product List | Glossary Off
Versions: 1 2 3 4 5 6 7 8 9 10 11 12 13 14 15 16 17 18 19 20 21 22 23 24 25 26 27 28 29 30 31 32 33 34 35 36 37 38 39 40 41 42 43 44 45 46 47 48 49 50

000
ASUS41 KLWX 241010
RWRLWX

REGIONAL WEATHER ROUNDUP
NATIONAL WEATHER SERVICE BALTIMORE MD/WASHINGTON DC
600 AM EDT FRI APR 24 2015

Note: "FAIR" indicates few or no clouds below 12,000 feet
with no significant weather and/or obstructions to visibility.
 TC=TEMPERATURE CELSIUS

 * =Non NWS site. Station does not report precipitation (e.g. rain,
    snow, etc.), thunder, or fog.

DCZ001-MDZ009-015-VAZ040>042-051-053>054-241100-
WASHINGTON METRO

CITY           SKY/WX    TMP DP  RH WIND       PRES   REMARKS
WASHINGTON NAT PTCLDY    40  17  39 N15G21    30.02R
DULLES         PTCLDY    38  22  52 NW14G20   30.01R
ANDREWS AFB    CLEAR     40  21  48 NW16G28   30.00R
FT BELVOIR     CLEAR     41  24  50 NW8       30.02R
QUANTICO       CLEAR     42  24  49 N10       30.03R
COLLEGE PARK*  CLOUDY    39  23  52 NW6       30.01R
LEESBURG*      PTCLDY    37  27  65 NW8       30.02R
MANASSAS*      CLOUDY    39  27  60 N3        30.03R
GAITHERSBURG*  MOCLDY    37  19  48 NW14G21   30.03R WCI  29

$$

MDZ006>007-011-014-241100-
BALTIMORE METRO

CITY           SKY/WX    TMP DP  RH WIND       PRES   REMARKS
BWI AIRPORT    MOCLDY    39  21  48 NW10      29.99R
MD SCIENCE CTR   N/A     41  20  43 MISG      29.99R
MARTIN STATE   MOCLDY    39  23  52 NW9G20    30.00R
ANNAPOLIS      CLOUDY    41  25  53 NW10      30.00R
FORT MEADE*    CLOUDY    37  23  56 NW8       30.03R

$$

MDZ012-015-019>023-241100-
MARYLAND EASTERN SHORE

CITY           SKY/WX    TMP DP  RH WIND       PRES   REMARKS
OCEAN CITY     CLEAR     40  27  59 NW10      29.95R
SALISBURY      CLEAR     41  26  55 NW10      29.96R
BAY BRIDGE AP*   N/A    N/A N/A N/A NW22      30.00R
CAMBRIDGE*     PTCLDY    43  23  45 NW20G33   29.99R
EASTON*        MOCLDY    43  27  52 N12G17    30.02R

$$

MDZ017>025-241100-
SOUTHERN MARYLAND

CITY           SKY/WX    TMP DP  RH WIND       PRES   REMARKS
PATUXENT RIVER PTCLDY    42  25  50 N20       29.99R
ST INIGOES     CLEAR     43  27  53 NW12G24   29.99R
LEONARDTOWN*   CLEAR     41  25  52 NW8G17    30.01R

$$

MDZ003>005-241100-
NORTH CENTRAL MARYLAND

CITY           SKY/WX    TMP DP  RH WIND       PRES   REMARKS
FREDERICK*     MOCLDY    39  18  41 NW7       30.05R
HAGERSTOWN APT CLOUDY    37  20  50 NW22G28   30.00R WCI  26
WESTMINSTER*   CLOUDY    36  21  55 NW5       29.98R

$$

MDZ501>502-241100-
WESTERN MARYLAND

CITY           SKY/WX    TMP DP  RH WIND       PRES   REMARKS
OAKLAND*       PTCLDY    28  28 100 W12G21    29.96S WCI  18
CUMBERLAND*    PTCLDY    37  19  48 NW8G22    30.07F

$$

VAZ025>031-241100-
SHENANDOAH VALLEY

CITY           SKY/WX    TMP DP  RH WIND       PRES   REMARKS
WINCHESTER*    CLOUDY    39  19  45 CALM      30.02R
FRONT ROYAL*   FAIR      37  23  56 N7        30.01R
LURAY*         FAIR      43  27  52 NW8G16    30.00R
NEW MARKET*    FAIR      38  24  57 N3        30.00R
STAUNTON*      CLEAR     38  23  55 CALM      30.01R
WAYNESBORO*    FAIR      37  22  54 CALM      29.99R

$$

WVZ021-048>050-054>055-241100-
EASTERN WEST VIRGINIA PANHANDLE

CITY           SKY/WX    TMP DP  RH WIND       PRES   REMARKS
MARTINSBURG    CLEAR     39  19  44 NW16G26   30.02R
PETERSBURG*    CLEAR     38  19  45 NW13G21   30.05R

$$

VAZ036>039-050-241100-
CENTRAL FOOTHILLS

CITY           SKY/WX    TMP DP  RH WIND       PRES   REMARKS
CHARLOTTESVILL CLEAR     43  22  43 N3        29.99R
CULPEPER*      CLEAR     43  28  56 N9        30.02R
ORANGE*        PTCLDY    43  30  61 N7        30.01S
GORDONSVILLE*  FAIR      42  24  48 CALM      29.99S
WARRENTON*     FAIR      41  28  60 N8G17     30.01R

$$

VAZ055>057-241100-
NORTH AND CENTRAL PIEDMONT

CITY           SKY/WX    TMP DP  RH WIND       PRES   REMARKS
FREDERICKSBRG* CLEAR     43  31  61 NW5       30.01R
STAFFORD*      CLEAR     40  25  56 N13       30.05R

$$

NCZ024-NYZ072-PAZ021-071-VAZ022-071-241100-
OTHER REGIONAL OBSERVATIONS

CITY           SKY/WX    TMP DP  RH WIND       PRES   REMARKS
NEW YORK CITY  CLOUDY    39  19  44 NW8       29.88R
PHILADELPHIA   CLOUDY    40  20  44 NW21G29   29.95R
PITTSBURGH     PTCLDY    30  24  78 W5        30.04F
ROANOKE        CLEAR     43  19  38 VRB7      30.03R
RICHMOND       PTCLDY    38  31  76 CALM      30.00R
RALEIGH        PTCLDY    39  29  67 CALM      30.03R

$$

ANZ530>537-241100-
MARINE OBSERVATIONS

STATION/POSITION TIME  TEMP    WIND        PRES
                       AIR SEA DIR/SP/G
                 (UTC) (F)     (DEG/KT/KT) (MB)
THOMAS PT LIGHT  1000   41 53  320/ 13/ 16 1016.6R
BALT KEY BRIDGE  0900   41     320/ 19/ 24 1014.8R
COVE POINT       0900   44     350/ 24/ 27 1015.4R
LEWISETTA        0900   45 58              1015.0R
SOLOMONS ISLAND  0900      56                N/A
PINEY POINT      0900           10/ 16/ 17   N/A

$$




USA.gov is the U.S. government's official web portal to all federal, state and local government web resources and services.